Weather in Velykomykhailivka

Ukraine / Dnipropetrovsk Region     47°58′12″N   36°27′53″E
temp.,
°C
wind,
m/s
gust,
m/s
humid.,
%
clouds,
%
prec.,
mm/h
press.,
hPa
HPBL,
m
11 april, sun
sun1100:00+6nne48645 0.0 1024146
03:00+5nne410665 0.0 1025178
06:00+4nne411685 0.0 1025236
09:00+9ne7124998 0.0 1026806
12:00+13nne810385 0.0 10241114
15:00+15ne81037100 0.0 10231358
18:00+13ne71146100 0.0 10221030
21:00+11nne71352100 0.0 1023526
12 april, mon
mon1200:00+10nne61259100 0.0 1021614
03:00+9ne5977100 0.0 1021441
06:00+9nne4889100 0.0 1021256
09:00+12ne4678100 0.0 1020506
12:00+17e4655100 0.0 10191026
15:00+19se354692 0.0 10181675
18:00+14ssw567486 0.1 1019413
21:00+11s248547 0.1 1021126
13 april, tue
tue1300:00+10ssw248824 0.0 1021137
03:00+9ssw238993 0.0 1022129
06:00+9ssw2284100 0.0 1021156
09:00+10sse227488 0.0 1021375
12:00+15sse4560100 0.0 10211303
15:00+13se3366100 0.0 1021867
18:00+13se4670100 0.0 1021488
21:00+11sse367667 0.0 1021214
14 april, wed
wed1400:00+8ssw239149 0.0 102068
03:00+7s119419 0.0 102011
06:00+6ssw119343 0.0 101910
09:00+11se1173100 0.0 1019329
12:00+10ese3383100 1.1 1018291
15:00+10ese3386100 2.6 1018209
18:00+12ese237534 0.1 1017262
21:00+9se358887 0.1 101779
15 april, thu
thu1500:00+8s228983 0.0 101730
03:00+6s229155 0.0 101612
06:00+6sse11905 0.0 101610
09:00+11ese337058 0.0 1016400
12:00+16ese335317 0.0 10141288
15:00+16s2353100 0.1 10131186
18:00+12ssw2574100 0.2 1014259
21:00+10ssw3689100 1.9 1014354